This is the latest recevied weather packets stored in our database for station/object EA1FBN. If no packets are shown the sender has not sent any weather packets the latest 10 day(s).
| Time | Temp. | Humidity | Pressure | Rain* | Wind** | Luminosity | Snow |
|---|---|---|---|---|---|---|---|
| 1777803020 | 13.89° C | 74% | 1014.3 hPa | 0 mm | - | - | - |
| 1777802719 | 13.89° C | 74% | 1014.3 hPa | 0 mm | - | - | - |
| 1777802420 | 14.44° C | 74% | 1014.3 hPa | 0 mm | - | - | - |
| 1777802120 | 14.44° C | 74% | 1014.3 hPa | 0 mm | - | - | - |
| 1777801220 | 13.33° C | 75% | 1014.3 hPa | 0 mm | - | - | - |
| 1777800919 | 13.33° C | 72% | 1014.3 hPa | 0 mm | - | - | - |
| 1777800620 | 12.78° C | 72% | 1014.4 hPa | 0 mm | - | - | - |
| 1777800320 | 12.78° C | 70% | 1014.5 hPa | 0 mm | - | - | - |
| 1777800020 | 12.78° C | 66% | 1014.5 hPa | 0 mm | - | - | - |
| 1777799720 | 12.78° C | 64% | 1014.6 hPa | 0 mm | - | - | - |
| 1777799420 | 12.22° C | 62% | 1014.5 hPa | 0 mm | - | - | - |
| 1777799120 | 12.22° C | 60% | 1014.5 hPa | 0 mm | - | - | - |
| 1777798820 | 12.22° C | 59% | 1014.6 hPa | 0 mm | - | - | - |
| 1777798520 | 11.67° C | 57% | 1014.6 hPa | 0 mm | - | - | - |
| 1777798220 | 11.67° C | 57% | 1014.6 hPa | 0 mm | - | - | - |
| 1777797920 | 11.67° C | 57% | 1014.7 hPa | 0 mm | - | - | - |
| 1777797620 | 11.11° C | 58% | 1014.6 hPa | 0 mm | - | - | - |
| 1777797320 | 11.11° C | 59% | 1014.7 hPa | 0 mm | - | - | - |
| 1777797020 | 11.11° C | 59% | 1014.7 hPa | 0 mm | - | - | - |
| 1777796720 | 11.11° C | 59% | 1014.8 hPa | 0 mm | - | - | - |
| 1777796420 | 11.11° C | 59% | 1014.8 hPa | 0 mm | - | - | - |
| 1777796120 | 11.11° C | 58% | 1014.6 hPa | 0 mm | - | - | - |
| 1777795820 | 11.11° C | 58% | 1014.7 hPa | 0 mm | - | - | - |
| 1777795520 | 11.11° C | 58% | 1014.6 hPa | 0 mm | - | - | - |
| 1777795220 | 11.11° C | 59% | 1014.6 hPa | 0 mm | - | - | - |
* Rain latest hour (hover to see other rain measurements)
** Current wind speed in m/s (hover to see current wind gust speed)